Location: Arbon
(43.0005°N, 0.7472°E)
Time: 17:26:52
(UTC+00:00)

USA 215 - Pass Details

Date: 07 August 2020
Orbit: 1102 x 1106 km, 123.0° (Epoch: 08 August)

Event Time Altitude Azimuth Distance (km) Brightness Sun altitude
Rises 01:41:04 0° 50° (NE) 3,927 7.2 -26.5°
Reaches altitude 10° 01:43:35 10° 53° (NE) 2,965 6.3 -26.3°
Maximum altitude 01:50:05 66° 135° (SE) 1,196 3.3 -25.8°
Enters shadow 01:51:28 53° 188° (S) 1,328 3.3 -25.6°
